Location: Bittkow
(50.3000°N, 19.0000°E)
Time: 03:11:49
(UTC+00:00)

Cosmos 2297 Rocket - Pass Details

Date: 19 September 2020
Orbit: 838 x 845 km, 71.0° (Epoch: 18 October)

Event Time Altitude Azimuth Distance (km) Brightness Sun altitude
Rises 02:07:29 0° 321° (NW) 3,415 5.3 -21.8°
Reaches altitude 10° 02:10:25 10° 308° (NW) 2,475 4.4 -21.4°
Enters shadow 02:10:42 11° 306° (NW) 2,398 4.3 -21.4°
